IW9GDC-13 Weather Reports


time (UTC)temp
C
wind
direction
speed
KPH
gust
KPH
rain 1hr
cm
rain 24hr
cm
rain mn
cm
humidity
%
barometer
mb
20260504050517 17 315 3.2 6.4 0.00 0.00 0.00 43 1020.2
20260504045517 17 315 3.2 6.4 0.00 0.00 0.00 43 1020.2
20260504045036 17 315 3.2 6.4 0.00 0.00 0.00 42 1020.1
20260504044517 17 338 3.2 8.0 0.00 0.00 0.00 42 1020.2
20260504044016 17 315 1.6 4.8 0.00 0.00 0.00 42 1020.2
20260504043516 17 315 3.2 4.8 0.00 0.00 0.00 42 1020.2
20260504043016 17 315 1.6 3.2 0.00 0.00 0.00 43 1020.1
20260504042516 16 315 1.6 1.6 0.00 0.00 0.00 42 1020.1
20260504042016 16 315 1.6 4.8 0.00 0.00 0.00 43 1020.0
20260504041516 16 0.0 3.2 0.00 0.00 0.00 43 1020.0
20260504041016 16 293 1.6 4.8 0.00 0.00 0.00 43 1019.9
20260504040516 16 293 1.6 6.4 0.00 0.00 0.00 43 1019.9
20260504040036 16 293 3.2 6.4 0.00 0.00 0.00 42 1019.9
20260504035516 16 293 4.8 8.0 0.00 0.00 0.00 42 1019.9
20260504035036 16 315 4.8 6.4 0.00 0.00 0.00 42 1019.8
20260504034536 16 315 3.2 4.8 0.00 0.00 0.00 42 1019.8
20260504034016 16 293 3.2 4.8 0.00 0.00 0.00 42 1019.9
20260504033537 16 315 3.2 6.4 0.00 0.00 0.00 42 1019.9
20260504033036 16 315 3.2 4.8 0.00 0.00 0.00 42 1019.9
20260504032516 16 293 3.2 4.8 0.00 0.00 0.00 41 1019.9
20260504032017 16 315 3.2 4.8 0.00 0.00 0.00 41 1019.8
20260504031517 17 293 3.2 6.4 0.00 0.00 0.00 41 1019.9
20260504031036 16 315 3.2 4.8 0.00 0.00 0.00 41 1019.9
20260504030516 16 315 3.2 6.4 0.00 0.00 0.00 41 1020.0
20260504030016 16 315 3.2 4.8 0.00 0.00 0.00 41 1019.9
20260504025516 16 293 3.2 4.8 0.00 0.00 0.00 41 1020.0
20260504025016 16 315 3.2 4.8 0.00 0.00 0.00 41 1019.9
20260504024516 16 293 3.2 6.4 0.00 0.00 0.00 41 1020.0
20260504024016 16 338 3.2 4.8 0.00 0.00 0.00 41 1020.0
20260504023516 16 315 3.2 6.4 0.00 0.00 0.00 42 1020.0
20260504023016 16 315 3.2 4.8 0.00 0.00 0.00 42 1020.0
20260504022536 16 315 4.8 6.4 0.00 0.00 0.00 42 1020.0
20260504022016 16 338 3.2 6.4 0.00 0.00 0.00 43 1020.1
20260504021516 16 315 4.8 8.0 0.00 0.00 0.00 42 1020.1
20260504021036 16 315 6.4 8.0 0.00 0.00 0.00 42 1020.1
20260504020516 16 315 4.8 6.4 0.00 0.00 0.00 42 1020.1
20260504020016 16 315 4.8 6.4 0.00 0.00 0.00 42 1020.1
20260504015516 16 315 4.8 8.0 0.00 0.00 0.00 42 1020.1
20260504015016 16 338 3.2 4.8 0.00 0.00 0.00 42 1020.1
20260504014518 16 315 3.2 6.4 0.00 0.00 0.00 42 1020.2
20260504014018 16 315 4.8 6.4 0.00 0.00 0.00 42 1020.1
20260504013538 16 315 4.8 6.4 0.00 0.00 0.00 42 1020.1
20260504013018 16 315 4.8 6.4 0.00 0.00 0.00 41 1020.2
20260504012518 16 315 4.8 6.4 0.00 0.00 0.00 41 1020.2
20260504012018 16 315 3.2 4.8 0.00 0.00 0.00 41 1020.2
20260504011518 16 315 3.2 6.4 0.00 0.00 0.00 41 1020.2
20260504011018 16 315 3.2 4.8 0.00 0.00 0.00 41 1020.2
20260504010518 16 315 3.2 6.4 0.00 0.00 0.00 41 1020.2
20260504010018 16 315 3.2 6.4 0.00 0.00 0.00 41 1020.2
20260504005518 16 293 3.2 6.4 0.00 0.00 0.00 41 1020.2
20260504005018 16 315 3.2 4.8 0.00 0.00 0.00 41 1020.3
20260504004538 16 293 4.8 8.0 0.00 0.00 0.00 41 1020.3
20260504004017 16 315 4.8 8.0 0.00 0.00 0.00 42 1020.2
20260504003518 16 293 4.8 8.0 0.00 0.00 0.00 42 1020.3
20260504003018 16 293 4.8 8.0 0.00 0.00 0.00 42 1020.2
20260504002558 16 293 4.8 8.0 0.00 0.00 0.00 43 1020.3
20260504002017 16 293 4.8 8.0 0.00 0.00 0.00 43 1020.3
20260504001518 16 293 4.8 9.7 0.00 0.00 0.00 44 1020.3
20260504001017 16 293 4.8 8.0 0.00 0.00 0.00 44 1020.3
20260504000518 16 293 4.8 9.7 0.00 0.00 0.00 44 1020.3
20260504000017 16 293 4.8 8.0 0.00 0.00 0.00 45 1020.4
20260503235518 16 293 4.8 8.0 0.00 0.00 0.00 46 1020.4
20260503235017 16 293 3.2 9.7 0.00 0.00 0.00 47 1020.4
20260503234538 16 293 4.8 8.0 0.00 0.00 0.00 49 1020.4
20260503234017 16 293 3.2 6.4 0.00 0.00 0.00 50 1020.5
20260503233518 16 293 4.8 6.4 0.00 0.00 0.00 50 1020.6
20260503233017 16 293 4.8 8.0 0.00 0.00 0.00 50 1020.6
20260503232517 16 293 4.8 8.0 0.00 0.00 0.00 50 1020.6
20260503232017 16 293 4.8 9.7 0.00 0.00 0.00 50 1020.7
20260503231518 16 293 4.8 9.7 0.00 0.00 0.00 51 1020.7
20260503231018 16 293 4.8 9.7 0.00 0.00 0.00 50 1020.8
20260503230518 16 293 4.8 8.0 0.00 0.00 0.00 52 1020.7
20260503230018 16 293 4.8 8.0 0.00 0.00 0.00 54 1020.8
20260503225518 16 293 3.2 8.0 0.00 0.00 0.00 53 1020.9
20260503225037 16 315 4.8 8.0 0.00 0.00 0.00 54 1020.9
20260503224518 16 315 4.8 6.4 0.00 0.00 0.00 54 1021.0
20260503224017 16 293 4.8 8.0 0.00 0.00 0.00 54 1020.9
20260503223517 16 293 4.8 8.0 0.00 0.00 0.00 54 1021.0
20260503223018 16 293 4.8 8.0 0.00 0.00 0.00 54 1021.0
20260503222517 16 315 3.2 6.4 0.00 0.00 0.00 55 1021.0
20260503222017 16 315 4.8 8.0 0.00 0.00 0.00 56 1020.9
20260503221557 16 315 3.2 6.4 0.00 0.00 0.00 57 1021.0
20260503221017 16 293 4.8 6.4 0.00 0.00 0.00 57 1021.0
20260503220517 16 293 4.8 8.0 0.00 0.00 0.00 60 1020.9
20260503220017 16 315 3.2 6.4 0.00 0.00 0.00 62 1021.0
20260503215537 16 293 3.2 4.8 0.00 0.00 0.00 63 1020.9
20260503215017 16 293 3.2 8.0 0.00 0.00 0.00 64 1021.0
20260503214517 16 293 6.4 11.3 0.00 0.00 0.00 64 1021.0
20260503214017 16 293 6.4 14.5 0.00 0.00 0.00 66 1021.1
20260503213517 16 293 8.0 11.3 0.00 0.00 0.00 67 1021.1
20260503213017 16 315 3.2 4.8 0.00 0.00 0.00 68 1021.1
20260503212517 16 315 4.8 8.0 0.00 0.00 0.00 69 1021.1
20260503212017 16 315 4.8 8.0 0.00 0.00 0.00 69 1021.1
20260503211517 16 293 6.4 9.7 0.00 0.00 0.00 70 1021.1
20260503211017 16 293 3.2 6.4 0.00 0.00 0.00 70 1021.1
20260503210517 16 315 4.8 9.7 0.00 0.00 0.00 70 1021.1
20260503210017 16 293 4.8 9.7 0.00 0.00 0.00 70 1021.2
20260503205537 16 293 3.2 6.4 0.00 0.00 0.00 70 1021.2
20260503205017 16 315 3.2 6.4 0.00 0.00 0.00 70 1021.2
20260503204517 16 293 3.2 9.7 0.00 0.00 0.00 70 1021.2
20260503204017 16 293 4.8 9.7 0.00 0.00 0.00 71 1021.1
20260503203537 16 293 4.8 9.7 0.00 0.00 0.00 71 1021.1
20260503203017 16 293 4.8 9.7 0.00 0.00 0.00 71 1021.1
20260503202517 16 293 6.4 14.5 0.00 0.00 0.00 70 1021.1
20260503202017 16 293 6.4 11.3 0.00 0.00 0.00 70 1021.0
20260503201537 16 315 6.4 16.1 0.00 0.00 0.00 70 1021.0
20260503201037 16 315 6.4 14.5 0.00 0.00 0.00 71 1021.0
20260503200517 16 293 6.4 12.9 0.00 0.00 0.00 71 1020.9
20260503200017 16 293 4.8 8.0 0.00 0.00 0.00 71 1020.9
20260503195517 16 293 8.0 17.7 0.00 0.00 0.00 71 1020.9
20260503195017 16 315 6.4 14.5 0.00 0.00 0.00 71 1021.0
20260503194518 16 315 6.4 9.7 0.00 0.00 0.00 70 1021.1
20260503194037 16 293 6.4 11.3 0.00 0.00 0.00 71 1021.1
20260503193517 16 293 3.2 6.4 0.00 0.00 0.00 71 1021.2
20260503193017 16 293 4.8 11.3 0.00 0.00 0.00 71 1021.1
20260503192537 16 293 4.8 14.5 0.00 0.00 0.00 71 1021.1
20260503192017 16 270 3.2 11.3 0.00 0.00 0.00 71 1021.1
20260503191517 16 270 4.8 9.7 0.00 0.00 0.00 71 1021.1
20260503191017 16 270 4.8 11.3 0.00 0.00 0.00 71 1020.9
20260503190517 16 270 1.6 6.4 0.00 0.00 0.00 70 1020.8
20260503190016 16 248 1.6 3.2 0.00 0.00 0.00 70 1020.8
20260503185516 16 0 1.6 6.4 0.00 0.00 0.00 70 1020.7
20260503185016 16 338 6.4 9.7 0.00 0.00 0.00 70 1020.7
20260503184557 16 338 8.0 14.5 0.00 0.00 0.00 70 1020.6
20260503184036 16 338 8.0 11.3 0.00 0.00 0.00 69 1020.6
20260503183516 16 0 6.4 11.3 0.00 0.00 0.00 68 1020.7
20260503183017 16 0 6.4 11.3 0.00 0.00 0.00 67 1020.6
20260503182517 16 0 4.8 14.5 0.00 0.00 0.00 67 1020.5
20260503182017 16 0 3.2 8.0 0.00 0.00 0.00 66 1020.2
20260503181516 16 315 3.2 9.7 0.00 0.00 0.00 66 1020.3
20260503181016 16 315 4.8 14.5 0.00 0.00 0.00 65 1020.3
20260503180517 16 315 4.8 9.7 0.00 0.00 0.00 65 1020.2
20260503180016 16 338 3.2 9.7 0.00 0.00 0.00 65 1020.1
20260503175517 17 315 6.4 14.5 0.00 0.00 0.00 65 1020.0
20260503175017 17 293 4.8 9.7 0.00 0.00 0.00 64 1019.9
20260503174516 17 293 4.8 8.0 0.00 0.00 0.00 63 1019.9
20260503174037 17 315 4.8 9.7 0.00 0.00 0.00 63 1020.0
20260503173517 17 293 6.4 11.3 0.00 0.00 0.00 62 1020.0
20260503173016 17 293 4.8 9.7 0.00 0.00 0.00 61 1020.1
20260503172516 17 293 6.4 11.3 0.00 0.00 0.00 61 1020.0
20260503172016 17 293 4.8 11.3 0.00 0.00 0.00 60 1020.1
20260503171517 17 293 4.8 9.7 0.00 0.00 0.00 60 1020.0
20260503171016 17 293 4.8 9.7 0.00 0.00 0.00 60 1019.9
20260503170516 17 248 3.2 8.0 0.00 0.00 0.00 60 1019.9
20260503160137 19 338 8.0 19.3 0.00 0.00 0.00 48 1019.9
20260503150516 20 23 8.0 17.7 0.00 0.00 0.00 47 1019.6
20260503131017 20 315 9.7 22.5 0.00 0.00 0.00 49 1020.0
20260503130518 20 315 9.7 29.0 0.00 0.00 0.00 51 1020.0
20260503110518 20 270 17.7 38.6 0.00 0.00 0.00 50 1020.7
20260503081517 18 270 9.7 20.9 0.00 0.00 0.00 54 1020.9
20260503081017 18 293 11.3 27.4 0.00 0.00 0.00 55 1021.0
20260503080517 18 270 12.9 29.0 0.00 0.00 0.00 55 1021.1
20260503072557 17 270 17.7 37.0 0.00 0.00 0.00 56 1021.2
20260503072037 17 270 14.5 33.8 0.00 0.00 0.00 56 1021.2
20260503071517 17 270 12.9 22.5 0.00 0.00 0.00 56 1021.2
20260503071017 17 270 9.7 27.4 0.00 0.00 0.00 56 1021.2
20260503070517 17 270 12.9 27.4 0.00 0.00 0.00 55 1021.2
20260503055017 17 225 11.3 19.3 0.00 0.00 0.00 57 1021.2
20260503054516 16 225 11.3 30.6 0.00 0.00 0.00 58 1021.2
20260503054016 16 180 11.3 20.9 0.00 0.00 0.00 58 1021.4
20260503053517 16 203 9.7 25.7 0.00 0.00 0.00 59 1021.2
20260503053016 16 248 9.7 22.5 0.00 0.00 0.00 59 1021.0
20260503052516 16 113 4.8 14.5 0.00 0.00 0.00 60 1021.2
20260503052016 16 270 6.4 17.7 0.00 0.00 0.00 61 1021.1